This is the latest recevied weather packets stored in our database for station/object KE1THD. If no packets are shown the sender has not sent any weather packets the latest 10 day(s).
| Time | Temp. | Humidity | Pressure | Rain* | Wind** | Luminosity | Snow |
|---|---|---|---|---|---|---|---|
| 1778014484 | 13.33° C | 37% | 1010 hPa | 0 mm | - | 168 W/m² | - |
| 1778014180 | 13.33° C | 39% | 1010.2 hPa | 0 mm | - | 211 W/m² | - |
| 1778013878 | 12.78° C | 37% | 1010 hPa | 0 mm | - | 244 W/m² | - |
| 1778013575 | 13.33° C | 37% | 1010.2 hPa | 0 mm | - | 228 W/m² | - |
| 1778013271 | 13.33° C | 38% | 1010.4 hPa | 0 mm | - | 180 W/m² | - |
| 1778012968 | 12.78° C | 39% | 1010.5 hPa | 0 mm | - | 235 W/m² | - |
| 1778012664 | 13.33° C | 37% | 1010.5 hPa | 0 mm | - | 214 W/m² | - |
| 1778012361 | 13.33° C | 38% | 1010.3 hPa | 0 mm | - | 223 W/m² | - |
| 1778012058 | 12.78° C | 37% | 1010.2 hPa | 0 mm | - | 248 W/m² | - |
| 1778011756 | 12.78° C | 38% | 1010.4 hPa | 0 mm | - | 225 W/m² | - |
| 1778011453 | 12.78° C | 38% | 1010.4 hPa | 0 mm | - | 223 W/m² | - |
| 1778011148 | 12.78° C | 37% | 1010.7 hPa | 0 mm | - | 239 W/m² | - |
| 1778010845 | 12.78° C | 37% | 1010.5 hPa | 0 mm | - | 267 W/m² | - |
| 1778010543 | 12.78° C | 37% | 1010.4 hPa | 0 mm | - | 260 W/m² | - |
| 1778010235 | 12.78° C | 37% | 1010.6 hPa | 0 mm | - | 246 W/m² | - |
| 1778009935 | 12.78° C | 37% | 1010.5 hPa | 0 mm | - | 252 W/m² | - |
| 1778009633 | 12.78° C | 36% | 1010.6 hPa | 0 mm | - | 266 W/m² | - |
| 1778009330 | 12.78° C | 36% | 1010.8 hPa | 0 mm | - | 242 W/m² | - |
| 1778009029 | 12.78° C | 38% | 1010.7 hPa | 0 mm | - | 231 W/m² | - |
| 1778008726 | 12.78° C | 37% | 1010.8 hPa | 0 mm | - | 220 W/m² | - |
| 1778008424 | 12.78° C | 36% | 1011.1 hPa | 0 mm | - | 216 W/m² | - |
| 1778008121 | 12.78° C | 36% | 1010.9 hPa | 0 mm | - | 220 W/m² | - |
| 1778007816 | 12.78° C | 36% | 1011 hPa | 0 mm | - | 227 W/m² | - |
| 1778007512 | 12.78° C | 37% | 1010.8 hPa | 0 mm | - | 228 W/m² | - |
| 1778007209 | 12.78° C | 37% | 1011.1 hPa | 0 mm | - | 237 W/m² | - |
* Rain latest hour (hover to see other rain measurements)
** Current wind speed in m/s (hover to see current wind gust speed)